sat.trackr.live / text

‹ back to catalog

STARLINK-4187

NORAD 52850 · 2022-062W

PAYLOAD ACTIVE UNKNOWN

§ Identity

Operator
Country
US
Launch date
2022-06-17
Launch site
AFETR
Launch vehicle
Mass (kg)
RCS (m²)

Purposes: comms

External: N2YO · Heavens-Above · Gunter

§ Orbital elements

Epoch: 2026-05-25T01:25:55.386912Z

Period
95.44 min
Inclination
53.2138°
Eccentricity
0.0001512
Mean motion
15.08840564 rev/d
Perigee alt
538.7 km
Apogee alt
540.8 km
Semi-major
6,917.9 km
B*
2.9815e-5
RAAN
51.6377°
Arg perigee
70.5531°
Mean anomaly
289.5624°
Rev number
21,731

§ Raw data

STARLINK-41871 52850U 22062W   26145.05966883  .00000187  00000+0  29815-4 0  99992 52850  53.2138  51.6377 0001512  70.5531 289.5624 15.08840564217314

JSON: /api/v1/satellites/52850 · /tle

For live sub-satellite position, see the globe view (requires WebGL).

§ Visibility from observer

Set your observer location to see the next 7 days of passes ≥ 10°. The values pass through the URL so the page stays shareable.

No JS? Fill the form by hand. The geolocation button needs JavaScript.